Погода в Мачакосе

Кения     1°31′09″S   37°16′08″E
темп.,
°C
ветер,
м/с
пор.,
м/с
влажн.,
%
обл.,
%
осадки,
мм/ч
давл.,
гПа
погр.,
м
19 апреля, пн
пн1900:00+16вюв249899 0.6 1017180
03:00+15всв119999 0.6 101637
06:00+14сз119735 0.0 101723
09:00+19вюв247630 0.0 1017732
12:00+24в564820 0.0 10141871
15:00+25в654396 0.0 10112157
18:00+20в5862100 0.0 1013696
21:00+16вюв2587100 0.1 1016129
20 апреля, вт
вт2000:00+15в229692 0.0 101644
03:00+14ююв019875 0.0 101510
06:00+14вюв1198100 0.0 101611
09:00+19всв2372100 0.0 1017767
12:00+24всв4450100 0.1 10141695
15:00+25всв4542100 0.1 10102380
18:00+20в3870100 0.3 1012345
21:00+18вюв277897 0.7 1014239
21 апреля, ср
ср2100:00+16всв2492100 0.2 1016107
03:00+16в239095 0.2 1014337
06:00+16в129397 0.1 1015170
09:00+18в228092 0.2 1017602
12:00+22в3361100 0.5 10141340
15:00+22в4562100 3.3 10111232
18:00+20вюв476678 0.4 1012474
21:00+16вюв2883100 0.4 1016216
22 апреля, чт
чт2200:00+15в2587100 0.0 1017116
03:00+14ююв1197100 0.0 101511
06:00+13зсз1196100 0.0 101714
09:00+20вюв1267100 0.0 1017563
12:00+24в4450100 0.1 10151834
15:00+22в345398 0.1 10121435
18:00+21в356422 0.0 1013240
21:00+16вюв228274 0.0 101528
23 апреля, пт
пт2300:00+15вюв2289100 0.1 101631
03:00+14сз1195100 0.3 101511
06:00+14с0195100 0.1 101510
09:00+19св2275100 0.1 1016563
12:00+25в345085 0.1 10131708
15:00+23в2355100 0.4 10101426
18:00+18св2684100 2.8 1013181
21:00+16в2293100 5.0 101554